Location: Bacharowice
(49.9333°N, 19.5833°E)
Time: 00:35:04
(UTC+00:00)

USA 305 - Pass Details

Date: 24 September 2021
Orbit: 547 x 588 km, 54.0° (Epoch: 03 October)

Event Time Altitude Azimuth Distance (km) Brightness Sun altitude
Rises 18:49:25 0° 293° (WNW) 2,750 7.9 -21.7°
Reaches altitude 10° 18:51:39 10° 295° (WNW) 1,859 6.7 -22.0°
Maximum altitude 18:55:52 72° 20° (NNE) 601 2.9 -22.6°
Enters shadow 18:56:04 71° 45° (NE) 606 2.8 -22.7°
